This is the latest recevied weather packets stored in our database for station/object KQ4JKJ. If no packets are shown the sender has not sent any weather packets the latest 10 day(s).
| Time | Temp. | Humidity | Pressure | Rain* | Wind** | Luminosity | Snow |
|---|---|---|---|---|---|---|---|
| 1777495499 | 28.89° C | 64% | 1006.8 hPa | 0 mm | - | 410 W/m² | - |
| 1777495195 | 28.89° C | 64% | 1006.9 hPa | 0 mm | - | 427 W/m² | - |
| 1777494893 | 28.89° C | 63% | 1006.7 hPa | 0 mm | - | 441 W/m² | - |
| 1777494590 | 28.89° C | 65% | 1007 hPa | 0 mm | - | 367 W/m² | - |
| 1777494287 | 28.89° C | 64% | 1007 hPa | 0 mm | - | 433 W/m² | - |
| 1777493983 | 28.89° C | 62% | 1007.3 hPa | 0 mm | - | 478 W/m² | - |
| 1777493681 | 29.44° C | 62% | 1007.2 hPa | 0 mm | - | 489 W/m² | - |
| 1777493379 | 29.44° C | 61% | 1007.4 hPa | 0 mm | - | 523 W/m² | - |
| 1777493075 | 29.44° C | 59% | 1007.5 hPa | 0 mm | - | 523 W/m² | - |
| 1777492771 | 29.44° C | 62% | 1007.7 hPa | 0 mm | - | 540 W/m² | - |
| 1777492466 | 29.44° C | 60% | 1007.7 hPa | 0 mm | - | 560 W/m² | - |
| 1777492164 | 29.44° C | 60% | 1007.8 hPa | 0 mm | - | 600 W/m² | - |
| 1777491861 | 29.44° C | 62% | 1007.8 hPa | 0 mm | - | 695 W/m² | - |
| 1777491557 | 29.44° C | 59% | 1007.9 hPa | 0 mm | - | 395 W/m² | - |
| 1777491255 | 30° C | 59% | 1008.3 hPa | 0 mm | - | 388 W/m² | - |
| 1777490951 | 29.44° C | 59% | 1008.3 hPa | 0 mm | - | 457 W/m² | - |
| 1777490646 | 29.44° C | 58% | 1008.6 hPa | 0 mm | - | 696 W/m² | - |
| 1777490342 | 29.44° C | 61% | 1008.5 hPa | 0 mm | - | 465 W/m² | - |
| 1777490041 | 29.44° C | 61% | 1008.5 hPa | 0 mm | - | 623 W/m² | - |
| 1777489738 | 28.89° C | 62% | 1008.5 hPa | 0 mm | - | 662 W/m² | - |
| 1777489435 | 28.89° C | 63% | 1008.7 hPa | 0 mm | - | 529 W/m² | - |
| 1777489132 | 29.44° C | 62% | 1008.7 hPa | 0 mm | - | 411 W/m² | - |
| 1777488829 | 30° C | 60% | 1009 hPa | 0 mm | - | 440 W/m² | - |
| 1777488526 | 29.44° C | 61% | 1009.2 hPa | 0 mm | - | 556 W/m² | - |
| 1777488223 | 29.44° C | 62% | 1009 hPa | 0 mm | - | 655 W/m² | - |
* Rain latest hour (hover to see other rain measurements)
** Current wind speed in m/s (hover to see current wind gust speed)